Tracking 19242 objects as of 17-Aug-2018
HD Live streaming from Space Station
objects crossing your sky now

RADCAL

Track RADCAL now!
10-day predictions
RADCAL is classified as:


NORAD ID: 22698
Int'l Code: 1993-041A
Perigee: 757.2 km
Apogee: 885.0 km
Inclination: 89.6 °
Period: 101.2 minutes
Semi major axis: 7192 km
RCS: 0.589 m2 (medium)
Launch date: June 25, 1993
Source: United States (US)
Launch site: AIR FORCE WESTERN TEST RANGE (AFWTR)

This spacecraft was used to help calibrate radar target cross section data.
aabbcc
Your satellite tracking list
Your tracking list is empty




NASA's NSSDC Master Catalog

Two Line Element Set (TLE):
1 22698U 93041A   18228.91815577 +.00000035 +00000-0 +94225-5 0  9993
2 22698 089.5621 211.7216 0088889 179.8037 180.3206 14.23378474305119
Source of the keplerian elements: AFSPC